Regional Weather Roundup
Issued by NWS

Home | Current Version | Previous Version | Graphics & Text | Print | Product List | Glossary On
Versions: 1 2 3 4 5 6 7 8 9 10 11 12 13 14 15 16 17 18 19 20 21 22 23 24 25 26 27 28 29 30 31 32 33 34 35 36 37 38 39 40 41 42 43 44 45 46 47 48 49 50
000
ASUS43 KLSX 290407
RWRMO

WEATHER SUMMARY FOR MISSOURI
NATIONAL WEATHER SERVICE SPRINGFIELD MO
1100 PM CDT THU AUG 28 2014

NOTE: "FAIR" INDICATES FEW OR NO CLOUDS BELOW 12,000 FEET WITH NO
       SIGNIFICANT WEATHER AND/OR OBSTRUCTIONS TO VISIBILITY.
       CURRENT SKY AND/OR WEATHER CONDITIONS ARE NOT AVAILABLE FOR
       CHILLICOTHE AND FARMINGTON.

MOZ001>031-035>038-043-044-053-054-290500-
...NORTHERN AND WESTERN MISSOURI...

CITY           SKY/WX    TMP DP  RH WIND       PRES   REMARKS
KANSAS CTY INT PTCLDY    74  65  73 S9        29.89R
KANSAS C DTWN  PTCLDY    82  64  54 SW5       29.88R
LEE`S SUMMIT   CLEAR     79  65  62 S6        29.90R
ST JOSEPH      MOCLDY    78  70  76 CALM      29.87R
CHILLICOTHE      N/A     76  73  91 CALM      29.91R
KIRKSVILLE     CLEAR     73  71  93 E9        29.95R

$$
MOZ066>068-077>081-088>096-101>105-290500-
...SOUTHWEST MISSOURI...

CITY           SKY/WX    TMP DP  RH WIND       PRES   REMARKS
SPRINGFIELD    CLEAR     76  60  57 S9        29.95S
JOPLIN         CLEAR     79  62  56 SE8       29.92S

$$
MOZ032>034-039>042-045>050-055>058-069>072-290500-
...CENTRAL MISSOURI...

CITY           SKY/WX    TMP DP  RH WIND       PRES   REMARKS
COLUMBIA       CLEAR     78  70  76 SE8       29.94R
JEFFERSON CITY CLEAR     77  70  79 SE7       29.93R
ROLLA          CLEAR     76  68  76 SE8       29.96R
SEDALIA        CLEAR     75  67  76 S7        29.91S
WHITEMAN AFB   CLEAR     76  67  74 S6        29.89S
OSAGE BEACH    CLEAR     75  63  64 S5        29.94R

$$
MOZ051-052-059>065-290500-
...EAST CENTRAL MISSOURI...

CITY           SKY/WX    TMP DP  RH WIND       PRES   REMARKS
ST LOUIS INTL  MOCLDY    79  71  76 SE7       29.99R
SPIRIT OF STL  MOCLDY    75  71  87 E5        29.96R
ST CHARLES     MOCLDY    74  72  93 NE6       29.97S

$$
MOZ072>076-082>087-097>100-106>115-290500-
...SOUTH CENTRAL AND SOUTHEAST MISSOURI...

CITY           SKY/WX    TMP DP  RH WIND       PRES   REMARKS
CAPE GIRARDEAU PTCLDY    73  70  90 E5        29.99R
FARMINGTON     PTCLDY    73  68  83 CALM      30.03R
POPLAR BLUFF   CLEAR     75  69  81 E6        29.97S
WEST PLAINS    CLEAR     76  63  64 SE5       30.00S

$$



USA.gov is the U.S. government's official web portal to all federal, state and local government web resources and services.